www.pogodaiklimat.ru

Погода и климат >> Архив погоды >> Россия >> Ненецкий АО >> Несь


ПОГОДА в Неси

  • Прогноз погоды в Неси
  • Монитор погоды в Неси

АРХИВ ПОГОДЫ в Неси

Время (UTC), дата Ветер
(напр.,м/с)
 
Видим.   Явления Облачность Т
(С)
Тd
(С)
f
(%)
Тe
(С)
Тes
(С)
Комфортность P
(гПа)
Po
(гПа)
Тmin
(С)
Tmax
(С)
R
(мм)
R24
(мм)
S
(см)
12 13.06 СЗ 8
{13}
н/о н/о +5.4 -0.0 68 0 1025.6 1024.0
15 13.06 СЗ 7
{14}
н/о н/о +4.8 +0.2 72 -1 -1 1024.3 1022.7
18 13.06 СЗ 4 н/о н/о +4.0 +0.2 76 -0 1022.9 1021.3
21 13.06 СЗ 4 н/о н/о +3.3 +0.2 80 -1 -1 1021.6 1020.0
00 14.06 С 4 н/о н/о +3.3 -0.3 77 -1 -1 1020.3 1018.7
03 14.06 СЗ 5 н/о н/о +4.0 +0.3 77 -1 -1 1020.3 1018.7
06 14.06 СЗ 4 н/о н/о +4.9 +0.1 71 +1 +1 1018.9 1017.3
09 14.06 СЗ 4 н/о н/о +5.6 +0.2 68 +2 +2 1017.6 1016.0
12 14.06 СЗ 4 н/о н/о +5.9 +0.2 67 +2 +2 1016.3 1014.7
15 14.06 СЗ 6 н/о н/о +5.1 +1.2 76 0 1014.9 1013.3
18 14.06 СЗ 5 н/о н/о +4.8 +1.5 79 0 1013.6 1012.0
21 14.06 СЗ 6 н/о н/о +4.5 +3.0 90 -1 -1 1012.3 1010.7
00 15.06 СЗ 6 н/о н/о +4.2 +1.6 83 -1 -1 1010.9 1009.3
03 15.06 СЗ 5 н/о н/о +4.8 +3.6 92 -0 1010.9 1009.3
06 15.06 С 8
{13}
н/о н/о +6.3 +3.3 81 +1 +1 1010.9 1009.3
09 15.06 С 7
{14}
н/о н/о +5.1 +1.4 77 -0 1012.3 1010.7
12 15.06 СЗ 6 н/о н/о +6.1 +1.6 73 +2 +2 1013.6 1012.0
15 15.06 СЗ 4 н/о н/о +5.9 +1.6 74 +2 +2 1013.6 1012.0
18 15.06 СЗ 4 н/о н/о +4.9 +2.1 82 +1 +1 1012.3 1010.7
21 15.06 З 3 н/о н/о +4.9 +3.1 88 +1 +1 1009.6 1008.0
00 16.06 З 5 н/о н/о +7.0 +4.7 85 +3 +3 1006.9 1005.3
03 16.06 З 6 н/о н/о +8.4 +4.4 76 +5 +5 1004.3 1002.7
06 16.06 СЗ 7
{14}
н/о н/о +6.6 +2.5 75 +2 +2 1004.3 1002.7
09 16.06 СЗ 7
{13}
н/о н/о +5.9 +2.4 78 +1 +1 1005.6 1004.0
12 16.06 СЗ 7 н/о н/о +6.4 +0.9 68 +2 +2 1006.9 1005.3
15 16.06 СЗ 6 н/о н/о +5.4 +1.5 76 +1 +1 1008.3 1006.7
18 16.06 СЗ 6
{13}
н/о н/о +5.1 +1.2 76 0 1008.3 1006.7
21 16.06 СЗ 6 н/о н/о +4.9 +1.0 76 -0 1006.9 1005.3
00 17.06 СЗ 6
{13}
н/о н/о +4.8 -0.2 70 -0 1006.9 1005.3
03 17.06 СЗ 7
{13}
н/о н/о +5.6 +1.1 73 +1 +1 1006.9 1005.3
06 17.06 СЗ 8
{13}
н/о н/о +6.5 +0.8 67 +2 +2 1008.3 1006.7
09 17.06 СЗ 7
{13}
н/о н/о +8.1 +1.3 62 +4 +4 1009.6 1008.0
12 17.06 СЗ 6 н/о н/о +7.5 +0.7 62 +4 +4 1009.6 1008.0
15 17.06 СЗ 6 н/о н/о +7.0 +0.7 64 +3 +3 1009.6 1008.0
18 17.06 СЗ 4 н/о н/о +5.2 +0.9 74 +1 +1 1008.3 1006.7
21 17.06 СЗ 3 н/о н/о +3.2 +1.2 87 -1 -1 1008.3 1006.7
00 18.06 СЗ 4 н/о н/о +4.7 +1.4 79 +1 +1 1008.3 1006.7
03 18.06 СЗ 4 н/о н/о +5.6 +0.8 71 +2 +2 1008.3 1006.7
06 18.06 СЗ 5 н/о н/о +6.8 +1.1 67 +3 +3 1008.3 1006.7
09 18.06 СЗ 5 н/о н/о +6.9 -0.6 59 +3 +3 1009.6 1008.0
12 18.06 СЗ 6 н/о н/о +7.8 +0.3 59 +4 +4 1010.9 1009.3
15 18.06 СЗ 5 н/о н/о +6.5 -0.7 60 +3 +3 1010.9 1009.3
18 18.06 С 4 н/о н/о +5.2 -1.0 64 +2 +2 1010.9 1009.3
21 18.06 СЗ 3 н/о н/о +3.4 -1.2 72 -0 1010.9 1009.3
00 19.06 С 2 н/о н/о +3.3 -0.5 76 +1 +1 1010.9 1009.3
03 19.06 СЗ 1 н/о н/о +5.2 -0.2 68 +4 +4 1010.9 1009.3
06 19.06 С 2 н/о н/о +6.8 +0.5 64 +5 +5 1010.9 1009.3
09 19.06 Ю 2 н/о н/о +8.6 +1.3 60 +7 +7 1009.6 1008.0
12 19.06 ЮВ 4 н/о н/о +9.6 +3.8 67 +7 +7 1008.3 1006.7
15 19.06 В 4 н/о н/о +11.0 +5.3 68 +9 +9 1006.9 1005.3
18 19.06 В 4 н/о н/о +8.6 +6.1 84 +5 +5 1004.3 1002.7
21 19.06 СВ 7 н/о н/о +6.2 +4.8 91 +1 +1 1004.3 1002.7
00 20.06 СВ 5 н/о н/о +4.7 +3.7 93 -0 1006.9 1005.3
03 20.06 С 5 н/о н/о +4.6 +2.6 87 -0 1009.6 1008.0
06 20.06 С 6 н/о н/о +6.0 +0.9 70 +1 1010.9 1009.3

 

Местоположение метеостанции Несь (Ненецкий АО, Россия): широта 66.60 долгота 44.68 высота над уровнем моря 13 м.

В архиве по умолчанию представлена погода в Неси за последнюю неделю. Архивные данные за месяц целиком и за предыдущие месяцы, начиная с января 2011 года, Вы можете получить, выбрав интересующий диапазон дат из раскрывающегося списка и нажав кнопку "Ввод!".


*Определитесь, кто Вы:
робот инопланетянин человек

Внимание! Время в таблицах - всемирное. Для получения местного времени необходимо прибавить поправку, которая равна 3 ч.

Смотрите также архив погоды в соседних городах и на ближайших метеорологических станциях:

Погода в Абрамовском маяке (Архангельская область, Россия) (68 км)
Погода в Мезене (Архангельская область, Россия) (84 км)
Погода на Моржовец Острове (Архангельская область, Россия) (98 км)
Погода в Мосеево (Архангельская область, Россия) (115 км)
Погода в Нижней Пеше (Ненецкий АО, Россия) (137 км)
Погода в Шойне (Ненецкий АО, Россия) (144 км)
Погода на Мысе Микулкин (Ненецкий АО, Россия) (158 км)
Погода на Сосновец Острове (Мурманская область, Россия) (178 км)
Погода в Кепино (Архангельская область, Россия) (187 км)
Погода в Лешуконском (Архангельская область, Россия) (196 км)

Пояснения к столбцам:

Ветер - указаны скорость ветра в м/с - средняя за 10 мин, порывы в срок и между сроками (в фигурных скобках) и направление, откуда дует ветер: С - северный, СВ - северо-восточный, В - восточный, ЮВ - юго-восточный, Ю - южный, ЮЗ - юго-западный, З - западный, СЗ - северо-западный.
Видимость - горизонтальная дальность видимости в метрах или километрах. При видимости от 1 до 10 км при отсутствии осадков обычно наблюдается дымка, при ухудшении видимости до 1 км и менее - туман. В сухую погоду видимость может ухудшаться дымом, пылью или мглою.
Явления - указаны атмосферные явления, наблюдавшиеся в срок или в последний час перед сроком; фигурными скобками обозначены явления, наблюдавшиеся между сроками (за 1-3 часа до срока); квадратными скобками обозначены град или гололедные отложения с указанием их диаметра в мм.
Облачность - указаны через наклонную черту общая и нижняя облачность в баллах и высота нижней границы облаков в метрах; квадратными скобками обозначены формы облаков: Ci - перистые, Cs - перисто-слоистые, Cc - перисто-кучевые, Ac - высококучевые, As - высокослоистые, Sc - слоисто-кучевые, Ns - слоисто-дождевые, Cu - кучевые, Cb - кучево-дождевые. Подробнее классификацию облаков см. в Атласе облаков (PDF).
T - Температура воздуха - температура, измеренная на высоте 2 м над землей.
Td - Температура точки росы - температура, при понижении до которой содержащийся в воздухе водяной пар достигнет насыщения.
f - Относительная влажность воздуха - влажноcть воздуха, измеренная на высоте 2 м над землей.
Te - Эффективная температура - температура, которую ощущает одетый по сезону человек в тени. Характеристика душности погоды. При расчете учитывается влияние влажности воздуха и скорости ветра на теплоощущения человека.
Tes - Эффективная температура на солнце - температура, которую ощущает человек, с поправкой на солнечный нагрев. Характеристика знойности погоды. Зависит от высоты солнца над горизонтом, облачности и скорости ветра. Ночью, в пасмурную погоду, а также при ветре 12 м/с и более поправка равна нулю.
P - Атмосферное давление - приведенное к уровню моря атмосферное давление.
Po - Атмосферное давление - измеренное на уровне метеостанции атмосферное давление.
Tmin - Минимальная температура - минимум температуры воздуха на высоте 2 м над землей.
Tmax - Максимальная температура - максимум температуры воздуха на высоте 2 м над землей.
R - Количество осадков - Количество выпавших осадков за период времени, мм. При наведении курсора мыши на число - период времени, за который выпало указанное количество осадков.
R24 - Количество осадков - Количество выпавших осадков за 24 часа, мм.
S - Снежный покров - Высота снежного покрова, см. При наведении курсора мыши на число - состояние снежного покрова и степень покрытия местности в баллах.